Regional Weather Roundup
Issued by NWS

Home | Current Version | Previous Version | Graphics & Text | Print | Product List | Glossary On
Versions: 1 2 3 4 5 6 7 8 9 10 11 12 13 14 15 16 17 18 19 20 21 22 23 24 25 26 27 28 29 30 31 32 33 34 35 36 37 38 39 40 41 42 43 44 45 46 47 48 49 50
000
ASUS43 KBIS 261702
RWRND

NORTH DAKOTA REGIONAL WEATHER ROUNDUP
NATIONAL WEATHER SERVICE BISMARCK ND
1200 PM CDT TUE JUL 26 2016

NOTE: "FAIR" INDICATES FEW OR NO CLOUDS BELOW 12,000 FEET WITH NO
SIGNIFICANT WEATHER AND/OR OBSTRUCTIONS TO VISIBILITY.


NDZ001>003-009>011-017-261800-
NORTHWEST NORTH DAKOTA

CITY           SKY/WX    TMP DP  RH WIND       PRES   REMARKS
WILLISTON      CLOUDY    76  62  62 N7        30.08R
MINOT          CLOUDY    81  66  60 NW8       30.05R
MINOT AFB      PTSUNNY   76  64  66 VRB2      30.05R
$$

NDZ018>021-031>035-040>046-261800-
SOUTHWEST NORTH DAKOTA

CITY           SKY/WX    TMP DP  RH WIND       PRES   REMARKS
BISMARCK       CLOUDY    75  66  73 W16       30.06R
DICKINSON      CLOUDY    67  63  87 N8        30.02F
GARRISON         N/A     75  68  78 CALM      30.06R
HETTINGER ARPT CLOUDY    71  56  58 N15       30.01F
$$

NDZ004>008-012>016-024-026-027-054-261800-
NORTHEAST NORTH DAKOTA

CITY           SKY/WX    TMP DP  RH WIND       PRES   REMARKS
GRAND FORKS    MOSUNNY   83  65  54 NE9       29.95F
GRND FRKS AFB  SUNNY     83  64  52 VRB7      29.97F
DEVILS LAKE    SUNNY     80  63  55 NE8       30.02R
$$

NDZ022-023-025-028>030-036>039-047>053-261800-
SOUTHEAST NORTH DAKOTA

CITY           SKY/WX    TMP DP  RH WIND       PRES   REMARKS
FARGO          CLOUDY    76  66  71 SW7       29.97R
JAMESTOWN      CLOUDY    82  67  60 E5        29.98S
$$




USA.gov is the U.S. government's official web portal to all federal, state and local government web resources and services.